Wind_Speed
31 29 29 30 27 28 35 38 38 42 45 38 34 33 39 38 37 35 36 36 36 37 36 36 38 40 42 40 42 40 40 39 38 39 39 37 38 40 42 43 44 44 45
36 42 36 30 31 37 41 41 40 40 41 39 37 36 35 40 42 39 38 39 38 37 39 40 41 43 44 43 40 40 40 39 40 40 36 37 38 39 40 41 43 43 46
53 35 29 46 44 44 45 44 40 39 38 37 38 36 37 38 39 41 37 37 39 39 39 40 44 44 42 40 40 40 41 39 39 39 35 38 37 39 39 39 42 43 40
30 44 53 50 49 51 51 51 50 47 40 42 41 39 39 38 39 42 40 41 39 38 42 42 41 42 42 42 42 40 41 39 40 44 40 40 37 38 39 39 40 41 42
45 55 56 58 56 56 54 53 51 49 46 50 45 45 41 42 39 43 46 43 40 42 39 40 40 40 38 42 41 41 41 39 37 42 42 38 35 38 40 41 42 41 42
53 54 57 59 60 59 58 58 56 53 53 49 46 46 46 48 49 49 46 44 43 41 41 41 38 37 39 41 42 38 37 36 38 41 40 39 39 40 40 40 40 41 40
55 58 58 60 60 61 60 60 58 57 55 51 48 46 45 47 46 44 48 49 46 43 40 42 41 40 41 41 37 38 40 40 41 41 40 38 38 40 38 40 40 40 40
57 58 59 59 60 60 60 58 56 56 54 50 49 48 46 43 45 47 50 49 46 42 40 41 41 38 41 43 41 38 39 39 38 34 36 35 37 36 38 40 39 39 38
58 59 57 57 57 56 54 53 54 53 53 52 51 51 51 49 48 49 50 52 50 48 44 46 47 47 40 43 42 39 40 39 36 40 38 35 35 37 39 38 37 39 39
56 57 58 57 56 55 54 53 52 53 55 56 56 56 57 56 56 54 57 58 55 50 53 51 52 52 44 44 46 44 39 44 35 37 38 35 34 37 36 36 39 39 41
58 57 54 53 54 55 56 56 57 58 59 60 61 62 63 63 63 61 60 62 60 54 55 51 49 45 46 46 48 39 40 42 36 38 39 38 38 40 38 39 39 39 40
53 53 53 54 56 58 60 61 62 63 62 59 55 52 49 48 48 48 49 51 51 50 56 66 63 52 40 43 40 33 27 35 34 31 34 40 43 39 37 37 38 40 34
52 53 55 59 61 61 59 54 49 46 45 43 42 40 40 44 44 43 40 42 45 45 45 46 48 46 43 50 46 34 36 37 33 33 36 40 32 34 34 35 39 35 30
56 59 60 56 49 43 40 40 40 37 39 38 39 42 45 46 43 38 35 31 28 27 30 35 38 37 46 39 45 41 32 30 31 32 35 33 33 31 33 37 33 29 27
55 49 43 38 37 35 33 34 36 40 40 41 42 42 34 29 29 29 29 29 29 27 23 24 24 23 30 34 43 25 31 30 31 36 32 31 31 32 36 31 29 27 26
37 34 35 36 38 38 38 35 36 39 41 41 36 34 34 34 28 28 29 26 27 23 19 22 19 17 20 19 28 28 21 23 26 27 28 27 33 34 28 28 27 27 25
34 36 38 40 38 36 34 33 37 39 37 34 34 35 31 27 28 29 27 24 22 22 22 18 12 8 9 10 11 16 22 24 23 27 27 31 32 24 26 27 26 26 26
39 40 41 41 38 36 34 36 33 28 29 28 30 31 27 30 22 20 21 16 13 11 11 6 4 4 6 9 15 13 13 17 23 24 28 25 23 24 24 25 27 28 28
42 41 42 37 32 31 29 29 26 23 33 29 31 26 23 21 19 14 11 10 4 6 2 7 2 3 4 1 11 16 21 22 22 23 19 19 20 22 24 27 29 29 27
43 44 39 30 28 26 29 29 20 24 28 20 19 19 17 14 17 15 13 12 8 10 8 6 6 4 6 7 10 13 15 16 14 13 13 15 19 23 24 25 24 20 16
44 36 30 27 24 24 25 20 19 24 20 18 15 13 12 13 12 11 10 12 12 8 4 2 5 7 9 9 9 11 8 4 6 7 12 16 19 20 20 15 11 7 2
42 36 29 21 19 20 16 13 19 18 18 13 9 9 8 7 8 6 8 8 7 3 5 4 5 3 5 4 3 2 1 2 5 9 12 16 15 13 6 3 3 6 10
23 10 4 5 6 7 12 15 15 14 13 9 7 8 8 4 3 2 3 4 6 8 6 6 5 3 2 3 6 6 6 4 6 9 12 13 10 6 8 10 13 16 19
16 12 9 7 10 11 13 12 9 9 6 3 2 3 2 1 8 9 6 6 5 5 8 8 5 4 6 8 8 7 5 7 10 12 16 16 13 14 15 16 19 23 24
14 13 13 13 14 13 10 9 10 7 4 5 4 4 4 3 2 5 9 10 10 7 5 3 4 7 9 8 8 7 7 9 12 15 20 22 22 21 22 23 24 25 26
10 12 13 13 13 11 10 10 9 9 8 8 7 6 6 7 8 8 11 8 7 7 5 5 5 8 9 8 9 8 8 10 14 17 21 24 28 30 31 31 31 32 32
Wind_Direction
302 297 290 293 304 316 320 315 309 306 306 303 294 294 279 284 284 283 282 283 285 287 287 288 289 290 293 292 292 294 292 290 287 289 285 285 290 291 294 298 300 303 304
296 304 280 284 318 320 315 312 309 308 306 306 302 297 287 285 278 282 286 285 284 285 289 291 290 290 290 291 290 289 290 290 289 290 283 283 288 289 292 295 297 300 300
282 311 280 320 314 311 312 312 311 309 308 310 304 298 291 285 285 285 285 284 285 287 289 292 290 289 286 287 287 288 288 288 281 281 283 285 287 288 292 294 299 301 304
289 305 304 307 313 313 315 316 316 313 308 310 306 297 294 291 290 291 289 278 278 285 292 292 288 282 282 287 284 282 282 286 283 283 287 285 285 288 292 296 300 303 305
289 302 309 313 311 314 314 311 308 306 300 304 298 294 292 287 292 287 286 288 290 289 288 282 280 280 273 286 280 281 280 283 279 275 280 287 281 287 291 295 298 303 303
304 305 305 306 308 307 307 307 307 303 301 300 297 291 290 285 287 283 287 289 289 287 287 282 275 272 275 281 279 279 280 277 282 275 280 281 284 284 288 293 298 300 303
298 300 301 301 303 304 304 303 302 302 301 302 299 294 290 287 284 283 284 285 284 285 280 275 274 275 271 279 273 273 279 279 278 280 279 278 282 284 289 296 297 299 302
295 295 297 300 301 300 301 303 303 302 302 301 297 296 292 287 285 282 280 280 280 281 279 272 275 276 279 281 269 274 275 281 280 271 282 281 280 285 290 294 296 301 301
296 297 298 299 300 301 301 300 299 298 297 295 294 293 292 287 282 280 280 276 277 279 276 267 269 272 276 276 273 265 271 276 267 274 278 277 279 286 290 293 296 301 304
301 301 302 304 303 301 299 297 294 293 292 291 291 290 288 286 283 278 272 272 274 270 268 267 265 267 268 275 275 277 273 263 265 271 273 271 275 283 291 297 298 302 303
301 302 304 303 301 299 298 297 295 293 292 290 288 285 284 283 283 282 278 274 271 265 259 255 256 259 270 275 268 269 266 260 268 275 278 272 274 280 290 294 296 300 298
303 305 303 301 299 298 297 297 296 294 294 294 294 294 293 290 288 288 289 287 283 277 266 263 267 270 259 263 253 254 259 266 262 273 277 277 273 282 290 294 294 296 292
303 302 300 299 298 297 298 300 301 302 303 303 303 301 297 298 296 294 290 289 282 275 270 265 262 257 250 252 262 236 253 253 267 273 277 274 274 285 291 291 291 291 291
305 303 302 303 306 307 305 306 308 309 309 307 302 299 297 297 296 293 292 292 297 291 282 271 263 259 250 247 245 247 244 262 249 276 275 274 283 286 288 288 288 288 289
304 307 312 314 314 311 310 306 305 306 305 302 302 304 304 302 297 294 295 294 291 295 295 290 275 270 262 254 249 226 245 242 262 272 271 277 284 287 287 287 287 288 287
312 313 314 312 310 306 304 305 309 308 306 308 309 310 303 306 306 306 300 292 285 285 290 289 281 273 270 249 230 225 236 247 256 269 277 279 284 285 288 286 284 282 281
309 308 309 311 310 308 307 305 308 311 317 316 309 312 316 311 304 304 301 280 286 278 289 290 278 275 252 232 245 211 223 250 255 261 271 281 287 287 283 282 282 282 283
302 305 308 309 307 305 304 308 314 321 326 324 320 317 316 312 303 302 316 306 282 273 270 178 63 338 271 221 205 224 255 266 270 272 280 283 285 283 283 284 287 290 287
304 302 303 307 303 303 308 309 309 328 329 316 326 324 325 323 323 314 307 343 343 140 119 76 166 121 45 317 232 245 261 272 275 282 282 284 286 289 297 300 296 289 283
307 307 304 300 300 301 303 306 322 327 332 342 348 358 4 16 36 45 54 69 96 62 36 33 9 354 286 265 244 249 266 277 284 280 288 296 307 308 303 300 296 291 277
310 304 297 297 299 298 296 310 326 332 327 334 349 354 4 14 40 87 78 78 104 70 15 357 292 284 268 270 278 283 284 254 283 312 324 322 313 310 308 302 307 313 257
307 301 295 291 287 292 306 328 327 325 329 334 354 357 5 6 56 75 67 59 60 64 1 329 326 323 295 274 252 188 136 37 5 343 338 334 326 322 324 352 68 102 120
328 331 334 328 319 332 341 329 324 325 326 344 16 23 32 52 49 41 355 360 337 326 335 355 14 50 69 133 117 93 76 49 8 350 13 5 3 55 78 94 105 112 118
49 63 63 42 19 5 341 337 346 338 331 335 320 348 355 70 64 46 13 347 340 342 2 21 31 38 109 112 96 91 81 44 21 44 45 42 63 87 95 101 111 118 123
47 43 33 21 2 354 1 356 350 343 325 332 319 296 299 262 232 341 352 335 326 331 1 64 48 103 114 107 109 96 76 49 47 65 64 65 77 93 100 106 112 116 118
32 25 11 13 16 12 9 360 352 350 356 355 344 329 302 284 293 308 324 338 355 23 28 47 88 128 127 132 115 92 82 66 70 78 79 81 86 92 97 103 108 112 114
Height
5833 5828 5825 5822 5819 5817 5815 5811 5807 5802 5798 5795 5791 5787 5785 5783 5780 5777 5774 5772 5771 5768 5766 5764 5762 5759 5757 5754 5751 5747 5745 5742 5740 5737 5734 5731 5729 5725 5722 5718 5714 5711 5707
5820 5812 5803 5810 5811 5808 5805 5802 5797 5791 5787 5783 5780 5776 5774 5770 5767 5766 5764 5761 5759 5757 5754 5752 5750 5747 5745 5742 5740 5737 5734 5732 5730 5726 5724 5721 5720 5717 5713 5710 5707 5702 5698
5803 5802 5800 5801 5799 5797 5793 5791 5785 5779 5775 5771 5767 5764 5761 5758 5755 5753 5751 5749 5747 5745 5742 5740 5738 5734 5732 5730 5728 5726 5723 5721 5719 5716 5714 5712 5710 5707 5703 5700 5696 5692 5687
5786 5798 5797 5794 5787 5784 5780 5774 5768 5764 5762 5759 5754 5752 5750 5746 5744 5741 5739 5737 5735 5733 5730 5727 5724 5722 5720 5718 5716 5714 5712 5711 5708 5706 5704 5701 5699 5696 5693 5689 5686 5681 5677
5798 5792 5783 5777 5774 5769 5764 5761 5759 5756 5752 5748 5744 5740 5737 5734 5730 5729 5727 5725 5723 5720 5717 5715 5713 5711 5707 5705 5704 5703 5701 5699 5698 5696 5693 5690 5688 5685 5682 5679 5675 5672 5667
5785 5779 5774 5768 5763 5759 5755 5751 5747 5743 5739 5735 5732 5727 5723 5720 5717 5715 5713 5710 5709 5706 5704 5703 5700 5698 5697 5695 5693 5691 5690 5688 5686 5684 5682 5680 5677 5675 5672 5669 5665 5661 5657
5775 5770 5766 5760 5755 5749 5743 5738 5733 5728 5723 5720 5715 5712 5710 5706 5703 5700 5698 5697 5695 5693 5690 5689 5687 5685 5683 5682 5680 5679 5678 5676 5674 5672 5671 5669 5667 5664 5662 5659 5655 5651 5647
5766 5761 5755 5749 5743 5737 5730 5723 5717 5712 5708 5704 5701 5698 5695 5692 5688 5685 5683 5681 5680 5679 5677 5675 5673 5671 5670 5668 5667 5667 5666 5665 5662 5660 5659 5658 5657 5654 5651 5649 5646 5643 5638
5753 5748 5742 5736 5730 5724 5717 5710 5703 5699 5693 5690 5685 5681 5678 5675 5672 5669 5666 5665 5664 5663 5662 5661 5659 5656 5657 5656 5654 5654 5653 5652 5651 5649 5648 5647 5646 5644 5642 5639 5636 5633 5628
5736 5731 5725 5719 5713 5707 5701 5695 5690 5684 5678 5673 5668 5664 5659 5656 5652 5649 5645 5645 5647 5646 5645 5644 5641 5640 5641 5641 5642 5642 5642 5637 5635 5637 5636 5636 5635 5634 5632 5629 5626 5622 5618
5721 5716 5710 5704 5698 5691 5684 5678 5672 5667 5662 5656 5651 5645 5640 5634 5630 5626 5623 5621 5624 5626 5626 5625 5622 5623 5624 5626 5628 5628 5629 5629 5630 5627 5626 5626 5624 5624 5622 5619 5616 5612 5608
5708 5702 5695 5688 5681 5674 5668 5661 5654 5647 5641 5635 5629 5624 5619 5614 5610 5606 5603 5600 5599 5602 5604 5603 5601 5604 5608 5613 5613 5614 5616 5615 5616 5616 5616 5615 5613 5614 5611 5608 5606 5603 5598
5695 5689 5681 5673 5665 5658 5651 5644 5637 5630 5625 5620 5615 5611 5606 5601 5597 5593 5589 5585 5582 5581 5582 5581 5581 5584 5589 5596 5601 5599 5603 5606 5604 5604 5604 5605 5604 5602 5600 5598 5596 5592 5589
5680 5671 5663 5655 5648 5642 5636 5630 5625 5619 5614 5609 5604 5599 5594 5588 5583 5579 5577 5573 5570 5568 5566 5565 5565 5567 5571 5576 5583 5589 5592 5593 5593 5595 5595 5596 5595 5592 5589 5588 5585 5583 5580
5662 5654 5648 5643 5638 5632 5627 5621 5616 5609 5603 5598 5592 5587 5582 5577 5573 5570 5567 5564 5561 5560 5559 5557 5556 5557 5559 5561 5570 5574 5577 5582 5585 5585 5586 5587 5586 5580 5579 5577 5575 5574 5572
5649 5643 5638 5633 5628 5623 5618 5613 5606 5599 5592 5586 5582 5577 5573 5569 5564 5560 5557 5554 5552 5552 5551 5550 5549 5550 5551 5553 5559 5566 5571 5572 5576 5577 5578 5577 5574 5572 5569 5568 5567 5565 5564
5638 5633 5629 5623 5618 5613 5608 5603 5599 5592 5583 5579 5574 5569 5564 5560 5555 5551 5547 5545 5545 5545 5545 5544 5543 5544 5548 5551 5556 5559 5563 5568 5570 5570 5569 5567 5564 5562 5561 5559 5557 5555 5555
5628 5624 5619 5614 5609 5605 5600 5596 5590 5585 5580 5574 5567 5561 5557 5552 5547 5544 5541 5537 5538 5539 5540 5540 5542 5544 5547 5549 5554 5557 5560 5562 5562 5561 5560 5558 5556 5554 5552 5549 5547 5545 5544
5618 5613 5609 5604 5600 5596 5593 5588 5583 5578 5574 5568 5563 5557 5551 5546 5542 5538 5537 5537 5536 5538 5539 5542 5543 5545 5547 5550 5552 5554 5555 5555 5555 5554 5552 5551 5549 5546 5542 5539 5536 5533 5531
5606 5601 5597 5594 5591 5589 5585 5581 5578 5574 5570 5564 5560 5555 5550 5546 5542 5540 5539 5539 5540 5541 5543 5543 5544 5544 5546 5547 5549 5549 5550 5550 5550 5549 5547 5545 5541 5538 5534 5530 5525 5522 5520
5594 5589 5586 5585 5584 5582 5579 5577 5573 5570 5566 5563 5559 5556 5553 5549 5547 5545 5545 5544 5544 5545 5545 5545 5545 5544 5544 5545 5546 5546 5546 5547 5547 5545 5542 5540 5536 5531 5527 5523 5519 5516 5514
5581 5576 5575 5576 5576 5576 5575 5573 5569 5566 5563 5561 5558 5556 5555 5553 5551 5550 5550 5550 5549 5548 5548 5547 5545 5544 5545 5545 5545 5545 5546 5545 5545 5543 5540 5536 5531 5526 5523 5521 5518 5517 5517
5570 5568 5570 5571 5572 5573 5571 5569 5567 5564 5561 5560 5558 5556 5555 5554 5554 5553 5552 5551 5551 5550 5549 5547 5546 5545 5545 5546 5546 5546 5546 5546 5545 5542 5539 5534 5529 5525 5524 5523 5522 5522 5524
5576 5573 5573 5573 5573 5571 5570 5567 5565 5563 5562 5561 5559 5558 5557 5556 5555 5554 5553 5552 5551 5550 5549 5547 5547 5546 5546 5547 5547 5548 5548 5548 5546 5544 5541 5535 5530 5528 5527 5527 5528 5530 5532
5582 5579 5577 5576 5574 5571 5570 5568 5565 5563 5562 5560 5559 5558 5557 5557 5556 5555 5553 5552 5550 5549 5548 5548 5548 5547 5548 5549 5551 5552 5552 5551 5550 5548 5545 5540 5536 5534 5535 5535 5537 5538 5540
5585 5582 5580 5578 5575 5573 5570 5569 5567 5564 5562 5560 5558 5557 5556 5555 5555 5554 5553 5551 5550 5550 5549 5549 5549 5550 5551 5553 5555 5555 5555 5555 5554 5553 5551 5548 5546 5545 5544 5545 5546 5548 5550